FLOCK 3R-2 (43748 NORAD) Tracking and Keplerian Element Data

This shows tracking and keplerian element data for the satellite.

Feedback or suggestion? Click here.




ElementValue
Catalog43748
NameFLOCK 3R-2
Epoch Orbit172
Epoch Day344.4524465
Epoch Year2018
RAAN49.4674
Inclination97.4841
Eccentricity0.0020123
Argument of Perigee289.271
Mean Anonmoly166.5686
Mean Motion15.26732474
Decay Rate2.597E-05
L11 43748U 18096AF 18344.45244650 .00002597 00000-0 10118-3 0 9997
L22 43748 97.4841 49.4674 0020123 289.2710 166.5686 15.26732474 1721

Live tracking and technical data element details for FLOCK 3R-2 (NORAD 43748). FLOCK 3R-2 can be tracked NOW for your location showing map with azimuth and elevation plus other details from your city location.

Track the satellite on the map from your city or location and see movement details for azimuth, elevation, latitude, longitude, range, height, and movement on the map or in text.







IsCatalogInMostPopularTable: catalog: 43748, numindb: 2
Update: records affected: 1



GetName: 43748 FLOCK 3R-2

Hit Count: updated at: Tue, 11 Dec 2018 03:02:53 GMT